| time (UTC) | temp F | wind direction | speed knots | gust knots | rain 1hr in | rain 24hr in | rain mn in | humidity % | barometer mb |
| 20260509213107 | 91 | 248 | 0.9 | 0.0 | 0.00 | 0.00 | 0.29 | 4 | |
| 20260509212107 | 92 | 68 | 1.7 | 0.0 | 0.00 | 0.00 | 0.29 | 4 | |
| 20260509211107 | 92 | 45 | 0.9 | 0.0 | 0.00 | 0.00 | 0.29 | 4 | |
| 20260509210107 | 91 | 270 | 0.0 | 0.0 | 0.00 | 0.00 | 0.29 | 4 | |
| 20260509205108 | 93 | 45 | 0.9 | 0.0 | 0.00 | 0.00 | 0.29 | 4 | |
| 20260509204107 | 94 | 68 | 0.9 | 0.0 | 0.00 | 0.00 | 0.29 | 4 | |
| 20260509203107 | 94 | 203 | 0.0 | 0.0 | 0.00 | 0.00 | 0.29 | 4 | |
| 20260509202107 | 94 | 338 | 0.9 | 0.0 | 0.00 | 0.00 | 0.29 | 4 | |
| 20260509201107 | 92 | 135 | 0.0 | 0.0 | 0.00 | 0.00 | 0.29 | 4 | |
| 20260509200106 | 92 | 270 | 1.7 | 0.0 | 0.00 | 0.00 | 0.29 | 4 | |
| 20260509195107 | 91 | 293 | 0.9 | 0.0 | 0.00 | 0.00 | 0.29 | 4 | |
| 20260509194107 | 94 | 248 | 0.0 | 0.0 | 0.00 | 0.00 | 0.29 | 4 | |
| 20260509193107 | 93 | 203 | 0.0 | 0.0 | 0.00 | 0.00 | 0.29 | 4 | |
| 20260509192106 | 89 | 113 | 0.9 | 0.0 | 0.00 | 0.00 | 0.29 | 5 | |
| 20260509191107 | 90 | 180 | 0.0 | 0.0 | 0.00 | 0.00 | 0.29 | 5 | |
| 20260509190107 | 88 | 203 | 0.0 | 0.0 | 0.00 | 0.00 | 0.29 | 6 | |
| 20260509185107 | 86 | 203 | 0.0 | 0.0 | 0.00 | 0.00 | 0.29 | 6 | |
| 20260509184107 | 84 | 203 | 0.0 | 0.0 | 0.00 | 0.00 | 0.29 | 7 | |
| 20260509183106 | 82 | 203 | 0.9 | 0.0 | 0.00 | 0.00 | 0.29 | 7 | |
| 20260509182106 | 80 | 158 | 0.0 | 0.0 | 0.00 | 0.00 | 0.29 | 8 | |
| 20260509181107 | 80 | 225 | 0.0 | 0.0 | 0.00 | 0.00 | 0.29 | 8 | |
| 20260509180107 | 80 | 293 | 0.0 | 0.0 | 0.00 | 0.00 | 0.29 | 8 | |
| 20260509175108 | 80 | 90 | 0.0 | 0.0 | 0.00 | 0.00 | 0.29 | 8 | |
| 20260509174107 | 80 | 203 | 0.0 | 0.0 | 0.00 | 0.00 | 0.29 | 8 | |
| 20260509173106 | 80 | 180 | 0.0 | 0.0 | 0.00 | 0.00 | 0.29 | 8 | |
| 20260509172108 | 79 | 203 | 0.0 | 0.0 | 0.00 | 0.00 | 0.29 | 8 | |
| 20260509171107 | 79 | 203 | 0.0 | 0.0 | 0.00 | 0.00 | 0.29 | 8 | |
| 20260509170108 | 81 | 203 | 0.0 | 0.0 | 0.00 | 0.00 | 0.29 | 7 | |
| 20260509165108 | 81 | 248 | 0.9 | 0.0 | 0.00 | 0.00 | 0.29 | 7 | |
| 20260509164106 | 83 | 203 | 0.0 | 0.0 | 0.00 | 0.00 | 0.29 | 7 | |
| 20260509163107 | 85 | 203 | 0.0 | 0.0 | 0.00 | 0.00 | 0.29 | 7 | |
| 20260509162107 | 85 | 45 | 0.0 | 0.0 | 0.00 | 0.00 | 0.29 | 7 | |
| 20260509161108 | 85 | 203 | 0.0 | 0.0 | 0.00 | 0.00 | 0.29 | 7 | |
| 20260509160107 | 83 | 203 | 0.0 | 0.0 | 0.00 | 0.00 | 0.29 | 7 | |
| 20260509155106 | 83 | 203 | 0.0 | 0.0 | 0.00 | 0.00 | 0.29 | 7 | |
| 20260509154107 | 82 | 270 | 0.0 | 0.0 | 0.00 | 0.00 | 0.29 | 7 | |
| 20260509153107 | 82 | 90 | 1.7 | 0.0 | 0.00 | 0.00 | 0.29 | 7 | |
| 20260509152106 | 81 | 180 | 0.0 | 0.0 | 0.00 | 0.00 | 0.29 | 8 | |
| 20260509151107 | 81 | 225 | 0.9 | 0.0 | 0.00 | 0.00 | 0.29 | 7 | |
| 20260509150107 | 80 | 248 | 1.7 | 0.0 | 0.00 | 0.00 | 0.29 | 8 | |
| 20260509145107 | 79 | 45 | 1.7 | 0.0 | 0.00 | 0.00 | 0.29 | 8 | |
| 20260509144107 | 78 | 248 | 1.7 | 0.0 | 0.00 | 0.00 | 0.29 | 8 | |
| 20260509143108 | 77 | 270 | 0.9 | 0.0 | 0.00 | 0.00 | 0.29 | 8 | |
| 20260509142106 | 76 | 270 | 2.6 | 0.0 | 0.00 | 0.00 | 0.29 | 9 | |
| 20260509141107 | 75 | 338 | 1.7 | 0.0 | 0.00 | 0.00 | 0.29 | 9 | |
| 20260509140107 | 74 | 338 | 0.9 | 0.0 | 0.00 | 0.00 | 0.29 | 9 | |
| 20260509135107 | 73 | 293 | 0.0 | 0.0 | 0.00 | 0.00 | 0.29 | 9 | |
| 20260509134106 | 72 | 293 | 1.7 | 0.0 | 0.00 | 0.00 | 0.29 | 9 | |
| 20260509133107 | 72 | 293 | 0.0 | 0.0 | 0.00 | 0.00 | 0.29 | 9 | |
| 20260509132107 | 71 | 113 | 0.0 | 0.0 | 0.00 | 0.00 | 0.29 | 9 | |
| 20260509131107 | 71 | 248 | 0.0 | 0.0 | 0.00 | 0.00 | 0.29 | 9 | |
| 20260509130106 | 71 | 203 | 0.0 | 0.0 | 0.00 | 0.00 | 0.29 | 9 | |
| 20260509125107 | 70 | 270 | 0.0 | 0.0 | 0.00 | 0.00 | 0.29 | 9 | |
| 20260509124106 | 70 | 68 | 0.0 | 0.0 | 0.00 | 0.00 | 0.29 | 9 | |
| 20260509123107 | 70 | 135 | 0.0 | 0.0 | 0.00 | 0.00 | 0.29 | 9 | |
| 20260509122107 | 70 | 248 | 0.0 | 0.0 | 0.00 | 0.00 | 0.29 | 9 | |
| 20260509121107 | 70 | 203 | 0.0 | 0.0 | 0.00 | 0.00 | 0.29 | 9 | |
| 20260509120106 | 70 | 248 | 0.0 | 0.0 | 0.00 | 0.00 | 0.29 | 9 | |
| 20260509115107 | 70 | 68 | 0.0 | 0.0 | 0.00 | 0.00 | 0.29 | 9 | |
| 20260509114106 | 70 | 180 | 0.0 | 0.0 | 0.00 | 0.00 | 0.29 | 9 | |
| 20260509113106 | 70 | 23 | 0.0 | 0.0 | 0.00 | 0.00 | 0.29 | 9 | |
| 20260509112107 | 70 | 203 | 0.0 | 0.0 | 0.00 | 0.00 | 0.29 | 9 | |
| 20260509111107 | 71 | 203 | 0.0 | 0.0 | 0.00 | 0.00 | 0.29 | 9 | |
| 20260509110106 | 71 | 158 | 0.0 | 0.0 | 0.00 | 0.00 | 0.29 | 9 | |
| 20260509105108 | 71 | 270 | 0.0 | 0.0 | 0.00 | 0.00 | 0.29 | 9 | |
| 20260509104108 | 71 | 180 | 0.0 | 0.0 | 0.00 | 0.00 | 0.29 | 9 | |
| 20260509103107 | 71 | 113 | 0.0 | 0.0 | 0.00 | 0.00 | 0.29 | 9 | |
| 20260509102107 | 70 | 180 | 0.0 | 0.0 | 0.00 | 0.00 | 0.29 | 9 | |
| 20260509101106 | 70 | 23 | 0.0 | 0.0 | 0.00 | 0.00 | 0.29 | 9 | |
| 20260509100107 | 70 | 180 | 0.0 | 0.0 | 0.00 | 0.00 | 0.29 | 9 | |
| 20260509095107 | 70 | 180 | 0.0 | 0.0 | 0.00 | 0.00 | 0.29 | 9 | |
| 20260509094107 | 70 | 225 | 0.0 | 0.0 | 0.00 | 0.00 | 0.29 | 9 | |
| 20260509093106 | 70 | 225 | 0.0 | 0.0 | 0.00 | 0.00 | 0.29 | 9 | |
| 20260509092107 | 70 | 180 | 0.0 | 0.0 | 0.00 | 0.00 | 0.29 | 9 | |
| 20260509091107 | 70 | 203 | 0.0 | 0.0 | 0.00 | 0.00 | 0.29 | 9 | |
| 20260509090107 | 70 | 180 | 0.0 | 0.0 | 0.00 | 0.00 | 0.29 | 9 | |
| 20260509085106 | 71 | 180 | 0.0 | 0.0 | 0.00 | 0.00 | 0.29 | 9 | |
| 20260509084107 | 71 | 225 | 0.0 | 0.0 | 0.00 | 0.00 | 0.29 | 9 | |
| 20260509083106 | 71 | 203 | 0.0 | 0.0 | 0.00 | 0.00 | 0.29 | 9 | |
| 20260509082106 | 71 | 270 | 0.0 | 0.0 | 0.00 | 0.00 | 0.29 | 9 | |
| 20260509081107 | 72 | 225 | 0.0 | 0.0 | 0.00 | 0.00 | 0.29 | 9 | |
| 20260509080107 | 72 | 225 | 0.0 | 0.0 | 0.00 | 0.00 | 0.29 | 9 | |
| 20260509075106 | 72 | 203 | 0.0 | 0.0 | 0.00 | 0.00 | 0.29 | 9 | |
| 20260509074106 | 72 | 225 | 0.0 | 0.0 | 0.00 | 0.00 | 0.29 | 9 | |
| 20260509073107 | 72 | 203 | 0.0 | 0.0 | 0.00 | 0.00 | 0.29 | 9 | |
| 20260509072107 | 72 | 203 | 0.0 | 0.0 | 0.00 | 0.00 | 0.29 | 9 | |
| 20260509071107 | 72 | 203 | 0.0 | 0.0 | 0.00 | 0.00 | 0.29 | 9 | |
| 20260509070107 | 72 | 203 | 0.0 | 0.0 | 0.00 | 0.00 | 0.29 | 9 | |
| 20260509065106 | 72 | 225 | 0.0 | 0.0 | 0.00 | 0.00 | 0.29 | 9 | |
| 20260509064107 | 72 | 225 | 0.0 | 0.0 | 0.00 | 0.00 | 0.29 | 9 | |
| 20260509063107 | 72 | 225 | 0.0 | 0.0 | 0.00 | 0.00 | 0.29 | 9 | |
| 20260509062107 | 72 | 225 | 0.0 | 0.0 | 0.00 | 0.00 | 0.29 | 9 | |
| 20260509061108 | 72 | 180 | 0.0 | 0.0 | 0.00 | 0.00 | 0.29 | 9 | |
| 20260509060108 | 72 | 203 | 0.0 | 0.0 | 0.00 | 0.00 | 0.29 | 9 | |
| 20260509055107 | 72 | 203 | 0.0 | 0.0 | 0.00 | 0.00 | 0.29 | 9 | |
| 20260509054106 | 72 | 203 | 0.0 | 0.0 | 0.00 | 0.00 | 0.29 | 9 | |
| 20260509053106 | 72 | 203 | 0.0 | 0.0 | 0.00 | 0.00 | 0.29 | 9 | |
| 20260509052107 | 72 | 225 | 0.0 | 0.0 | 0.00 | 0.00 | 0.29 | 9 | |
| 20260509051107 | 72 | 203 | 0.0 | 0.0 | 0.00 | 0.00 | 0.29 | 9 | |
| 20260509050108 | 72 | 203 | 0.0 | 0.0 | 0.00 | 0.00 | 0.29 | 9 | |
| 20260509045107 | 72 | 225 | 0.0 | 0.0 | 0.00 | 0.00 | 0.29 | 9 | |
| 20260509044107 | 72 | 225 | 0.0 | 0.0 | 0.00 | 0.00 | 0.29 | 9 | |
| 20260509043107 | 72 | 248 | 0.0 | 0.0 | 0.00 | 0.00 | 0.29 | 9 | |
| 20260509042108 | 72 | 225 | 0.0 | 0.0 | 0.00 | 0.00 | 0.29 | 9 | |
| 20260509041107 | 72 | 225 | 0.0 | 0.0 | 0.00 | 0.00 | 0.29 | 9 | |
| 20260509040108 | 72 | 248 | 0.0 | 0.0 | 0.00 | 0.00 | 0.29 | 9 | |
| 20260509035108 | 71 | 270 | 0.0 | 0.0 | 0.00 | 0.00 | 0.29 | 9 | |
| 20260509034107 | 71 | 270 | 0.0 | 0.0 | 0.00 | 0.00 | 0.29 | 9 | |
| 20260509033107 | 71 | 225 | 0.0 | 0.0 | 0.00 | 0.00 | 0.29 | 9 | |
| 20260509032107 | 71 | 225 | 0.0 | 0.0 | 0.00 | 0.00 | 0.29 | 9 | |
| 20260509031107 | 71 | 248 | 0.0 | 0.0 | 0.00 | 0.00 | 0.29 | 9 | |
| 20260509030107 | 71 | 270 | 0.0 | 0.0 | 0.00 | 0.00 | 0.29 | 9 | |
| 20260509025107 | 71 | 225 | 0.0 | 0.0 | 0.00 | 0.00 | 0.29 | 9 | |
| 20260509024107 | 71 | 270 | 0.0 | 0.0 | 0.00 | 0.00 | 0.29 | 9 | |
| 20260509023107 | 71 | 248 | 0.0 | 0.0 | 0.00 | 0.00 | 0.29 | 9 | |
| 20260509022107 | 71 | 225 | 0.0 | 0.0 | 0.00 | 0.00 | 0.29 | 9 | |
| 20260509021108 | 72 | 180 | 0.0 | 0.0 | 0.00 | 0.00 | 0.29 | 9 | |
| 20260509020107 | 72 | 180 | 0.0 | 0.0 | 0.00 | 0.00 | 0.29 | 9 | |
| 20260509015106 | 73 | 225 | 0.0 | 0.0 | 0.00 | 0.00 | 0.29 | 9 | |
| 20260509014106 | 73 | 225 | 0.0 | 0.0 | 0.00 | 0.00 | 0.29 | 8 | |
| 20260509013107 | 73 | 225 | 0.0 | 0.0 | 0.00 | 0.00 | 0.29 | 8 | |
| 20260509012107 | 73 | 248 | 0.0 | 0.0 | 0.00 | 0.00 | 0.29 | 8 | |
| 20260509011107 | 74 | 203 | 0.0 | 0.0 | 0.00 | 0.00 | 0.29 | 8 | |
| 20260509010107 | 74 | 203 | 0.0 | 0.0 | 0.00 | 0.00 | 0.29 | 8 | |
| 20260509005106 | 74 | 248 | 0.0 | 0.0 | 0.00 | 0.00 | 0.29 | 8 | |
| 20260509004107 | 75 | 225 | 0.0 | 0.0 | 0.00 | 0.00 | 0.29 | 8 | |
| 20260509003107 | 75 | 203 | 0.0 | 0.0 | 0.00 | 0.00 | 0.29 | 8 | |
| 20260509002107 | 75 | 225 | 0.0 | 0.0 | 0.00 | 0.00 | 0.29 | 8 | |
| 20260509001107 | 75 | 225 | 0.0 | 0.0 | 0.00 | 0.00 | 0.29 | 8 | |
| 20260509000107 | 75 | 203 | 0.0 | 0.0 | 0.00 | 0.00 | 0.29 | 8 | |
| 20260508235108 | 75 | 203 | 0.0 | 0.0 | 0.00 | 0.00 | 0.29 | 8 | |
| 20260508234106 | 75 | 203 | 0.0 | 0.0 | 0.00 | 0.00 | 0.29 | 8 | |
| 20260508233106 | 75 | 225 | 0.0 | 0.0 | 0.00 | 0.00 | 0.29 | 8 | |
| 20260508232107 | 76 | 248 | 0.9 | 0.0 | 0.00 | 0.00 | 0.29 | 8 | |
| 20260508231107 | 76 | 135 | 0.9 | 0.0 | 0.00 | 0.00 | 0.29 | 8 | |
| 20260508230107 | 76 | 225 | 0.9 | 0.0 | 0.00 | 0.00 | 0.29 | 8 | |
| 20260508225106 | 77 | 225 | 0.0 | 0.0 | 0.00 | 0.00 | 0.29 | 8 | |
| 20260508224107 | 77 | 203 | 0.0 | 0.0 | 0.00 | 0.00 | 0.29 | 8 | |
| 20260508223107 | 77 | 203 | 1.7 | 0.0 | 0.00 | 0.00 | 0.29 | 8 | |
| 20260508222106 | 77 | 180 | 0.0 | 0.0 | 0.00 | 0.00 | 0.29 | 8 | |
| 20260508221107 | 78 | 248 | 0.0 | 0.0 | 0.00 | 0.00 | 0.29 | 7 | |
| 20260508220107 | 78 | 203 | 0.0 | 0.0 | 0.00 | 0.00 | 0.29 | 7 | |
| 20260508215107 | 79 | 248 | 0.0 | 0.0 | 0.00 | 0.00 | 0.29 | 7 | |
| 20260508214107 | 79 | 248 | 0.9 | 0.0 | 0.00 | 0.00 | 0.29 | 7 |